Terminal Aerodrome Forecast
Issued by NWS La Crosse, WI

Home | Current Version | Previous Version | Text Only | Print | Product List | Glossary On
Versions: 1 2 3 4 5 6 7 8 9 10 11 12 13 14 15 16 17 18 19 20 21 22 23 24 25 26 27 28 29 30 31 32 33 34 35 36 37 38 39 40 41 42 43
000
FTUS43 KARX 010520
TAFLSE
TAF
KLSE 010520Z 0106/0206 02005KT P6SM SCT250
     FM010800 07003KT P6SM BKN250
     FM011400 07007KT P6SM SCT250
     FM012300 11006KT P6SM SCT250=

USA.gov is the U.S. government's official web portal to all federal, state and local government web resources and services.